Weather History for Farmingdale, NY

Change the Weather History Date:

Tuesday, May 28, 2013

  Actual Average Record
Temperature  
Mean Temperature 60 °F -  
Max Temperature 69 °F 68 °F 82 °F (2007)
Min Temperature 51 °F 52 °F 42 °F (1997)
Degree Days  
Heating Degree Days 6    
Growing Degree Days 10 (Base 50)    
Moisture  
Dew Point 52 °F    
Average Humidity 84    
Maximum Humidity 100    
Minimum Humidity 43    
Precipitation  
Precipitation 0.42 in - - ()
Sea Level Pressure  
Sea Level Pressure 30.19 in    
Wind  
Wind Speed 4 mph (SE)    
Max Wind Speed 12 mph    
Max Gust Speed -    
Visibility 7 miles    
Events Rain    
Averages and records for this station are not official NWS values.
T = Trace of Precipitation, MM = Missing Value Source: NWS Daily Summary

Daily Weather History Graph

Daily Weather History Graph

Search for Another Location

Airport:

Trip Planner

Search our weather history database for the weather conditions in past years. The results will help you decide how hot, cold, wet, or windy it might be!

Date:

Astronomy

May. 28, 2013 Rise Set
Actual Time 5:26 AM EDT 8:15 PM EDT
Civil Twilight 4:54 AM EDT 8:48 PM EDT
Nautical Twilight 4:13 AM EDT 9:29 PM EDT
Astronomical Twilight 3:26 AM EDT 10:16 PM EDT
Moon 11:36 PM EDT (5/28) 9:12 AM EDT (5/28)
Length of Visible Light 15h 54m
Length of Day
14h 49m
Waning Gibbous, 83% of the Moon is Illuminated
May 28
Waning Gibbous
May 31
Last Quarter
Jun 8
New
Jun 16
First Quarter
Jun 23
Full

Hourly Weather History & Observations

Time (EDT) Temp. Dew Point Humidity Pressure Visibility Wind Dir Wind Speed Gust Speed Precip Events Conditions
12:53 AM 55.0 °F 48.0 °F 77% 30.19 in 10.0 mi SW 4.6 mph - N/A   Clear
1:53 AM 54.0 °F 46.9 °F 77% 30.20 in 10.0 mi Calm Calm - N/A   Clear
2:53 AM 53.1 °F 46.9 °F 80% 30.19 in 10.0 mi Calm Calm - N/A   Clear
3:53 AM 53.1 °F 46.9 °F 80% 30.19 in 10.0 mi Calm Calm - N/A   Clear
4:53 AM 51.1 °F 46.9 °F 86% 30.19 in 10.0 mi Calm Calm - N/A   Clear
5:53 AM 52.0 °F 48.0 °F 86% 30.20 in 10.0 mi Calm Calm - N/A   Clear
6:53 AM 54.0 °F 48.9 °F 83% 30.21 in 10.0 mi Calm Calm - N/A   Clear
7:53 AM 61.0 °F 50.0 °F 67% 30.21 in 10.0 mi Calm Calm - N/A   Clear
8:53 AM 64.9 °F 50.0 °F 58% 30.22 in 10.0 mi Variable 4.6 mph - N/A   Clear
9:53 AM 68.0 °F 48.0 °F 49% 30.22 in 10.0 mi South 5.8 mph - N/A   Clear
10:53 AM 68.0 °F 45.0 °F 43% 30.23 in 10.0 mi South 9.2 mph - N/A   Clear
11:53 AM 66.9 °F 45.0 °F 45% 30.23 in 10.0 mi South 11.5 mph - N/A   Partly Cloudy
12:53 PM 62.1 °F 50.0 °F 65% 30.23 in 10.0 mi SW 8.1 mph - N/A   Overcast
1:53 PM 59.0 °F 53.1 °F 81% 30.22 in 10.0 mi SSE 4.6 mph - 0.02 in Rain Light Rain
2:53 PM 57.9 °F 51.1 °F 78% 30.20 in 10.0 mi SE 5.8 mph - 0.04 in Rain Light Rain
3:53 PM 55.9 °F 54.0 °F 93% 30.21 in 2.0 mi East 4.6 mph - 0.09 in Rain Rain
4:09 PM 57.2 °F 53.6 °F 88% 30.20 in 3.0 mi ESE 3.5 mph - 0.04 in Rain Rain
4:22 PM 55.4 °F 55.4 °F 100% 30.20 in 3.0 mi East 4.6 mph - 0.07 in Rain Rain
4:40 PM 55.4 °F 55.4 °F 100% 30.21 in 3.0 mi NE 3.5 mph - 0.10 in Rain Rain
4:53 PM 55.9 °F 55.0 °F 97% 30.22 in 3.0 mi ENE 4.6 mph - 0.16 in Rain Heavy Rain
5:27 PM 57.2 °F 55.4 °F 94% 30.19 in 2.5 mi ESE 5.8 mph - 0.05 in Rain Light Rain
5:53 PM 57.9 °F 57.0 °F 97% 30.19 in 2.5 mi ESE 10.4 mph - 0.06 in Rain Light Rain
6:11 PM 57.2 °F 57.2 °F 100% 30.18 in 2.5 mi SE 8.1 mph - 0.00 in Rain Light Rain
6:53 PM 57.9 °F 57.0 °F 97% 30.17 in 2.5 mi SE 8.1 mph - 0.00 in   Overcast
7:53 PM 57.0 °F 57.0 °F 100% 30.16 in 2.5 mi SE 6.9 mph - 0.05 in   Overcast
8:53 PM 57.0 °F 55.9 °F 96% 30.15 in 2.5 mi SE 5.8 mph - 0.00 in   Overcast
9:25 PM 57.2 °F 55.4 °F 94% 30.16 in 2.5 mi SSE 6.9 mph - N/A   Overcast
9:53 PM 57.0 °F 55.9 °F 96% 30.16 in 2.5 mi SSE 5.8 mph - N/A   Overcast
10:48 PM 57.2 °F 55.4 °F 94% 30.15 in 10.0 mi SE 4.6 mph - N/A   Overcast
10:53 PM 57.0 °F 55.9 °F 96% 30.15 in 10.0 mi SE 4.6 mph - N/A   Overcast
11:50 PM 57.2 °F 55.4 °F 94% 30.16 in 10.0 mi Calm Calm - N/A   Overcast
11:53 PM 57.0 °F 55.9 °F 96% 30.14 in 10.0 mi SSE 3.5 mph - N/A   Overcast